Wind_Speed
36 37 38 38 39 40 40 41 41 41 41 40 40 40 41 42 42 41 41 41 41 40 40 42 43 42 42 41 41 41 40 40 39 38 37 34 32 31
36 37 38 39 40 40 41 42 42 42 42 42 42 40 40 41 42 42 41 43 42 41 41 41 43 42 42 42 41 40 41 40 40 39 39 36 35 33
36 36 37 38 39 40 41 41 42 42 41 42 42 42 41 41 42 42 42 43 44 43 41 41 42 42 43 43 42 41 40 40 40 40 39 38 36 34
35 35 35 36 38 39 40 41 41 42 42 42 42 42 42 42 42 42 43 44 44 44 43 43 42 42 43 44 43 42 40 40 40 40 39 38 36 35
34 34 34 35 35 36 37 39 40 41 41 42 42 43 43 43 44 43 42 43 44 44 44 44 44 43 43 43 43 43 42 40 40 39 38 37 37 35
32 33 33 34 34 35 36 37 38 39 40 41 42 43 43 43 44 44 44 44 43 43 44 44 45 45 44 44 44 43 42 40 40 39 38 37 36 36
31 31 31 32 33 34 35 36 37 38 39 40 41 43 43 43 44 44 44 44 44 43 43 44 45 45 45 45 45 44 43 41 40 39 39 38 37 36
29 29 30 30 31 32 34 35 36 37 38 40 41 42 43 44 44 45 45 45 45 44 44 43 44 47 46 45 45 45 45 43 42 41 40 40 38 37
28 28 28 28 28 30 32 33 35 37 38 39 41 42 42 43 44 45 46 46 45 45 45 43 42 44 47 48 47 46 45 45 44 42 42 41 40 38
28 27 27 27 27 28 29 30 32 35 37 38 40 42 43 43 44 45 45 46 45 45 45 44 43 43 46 48 48 48 47 47 45 44 44 43 41 40
27 26 26 26 26 27 29 30 31 33 35 37 38 41 42 43 44 45 45 45 46 46 46 45 45 45 44 45 48 49 48 47 47 46 45 44 42 41
26 26 26 26 26 27 28 29 31 32 34 36 38 40 42 43 44 44 45 46 46 46 47 46 46 46 45 44 45 48 49 48 47 47 46 45 43 42
26 26 26 26 26 27 28 29 30 31 33 34 36 38 40 42 43 44 45 45 45 45 46 46 46 46 46 45 45 46 48 48 48 48 47 46 45 44
26 26 26 25 26 26 27 28 29 30 31 33 34 35 37 39 41 43 45 45 45 45 46 46 46 46 46 46 46 45 46 47 48 48 49 48 46 45
26 26 25 25 24 24 25 26 27 28 30 31 33 34 36 38 40 42 44 45 45 45 46 46 46 46 47 46 46 45 45 46 47 48 49 48 46 45
25 25 24 23 22 22 22 22 24 25 27 29 31 33 34 36 38 40 42 43 44 45 47 47 46 46 46 46 46 46 45 45 46 48 48 48 48 47
24 23 23 21 20 19 19 19 20 21 23 25 27 29 31 33 35 37 39 41 43 44 45 45 46 46 47 46 46 46 45 45 45 45 45 47 48 48
24 22 21 20 19 18 17 17 17 17 19 22 24 26 28 30 32 35 37 39 40 42 43 44 45 46 48 48 46 45 44 44 45 45 44 45 47 47
23 21 20 19 18 17 16 15 15 16 16 19 21 24 25 27 30 32 35 37 37 39 40 42 43 44 47 47 46 45 43 44 45 45 44 45 46 46
22 21 20 19 17 16 15 14 14 14 14 16 19 21 23 25 27 30 33 35 36 36 37 39 40 42 44 45 46 45 45 43 43 44 44 45 46 47
22 21 20 18 17 15 14 13 12 12 12 14 16 19 21 23 25 27 30 33 34 35 36 36 37 39 41 43 44 45 45 44 43 44 43 42 43 45
21 21 20 18 16 15 13 12 11 10 10 11 14 17 19 21 22 24 27 29 31 33 34 34 35 37 39 40 41 42 43 43 43 44 44 43 43 44
21 20 19 17 15 14 12 11 10 9 9 9 11 13 16 18 20 22 25 27 28 30 32 33 34 34 36 38 38 40 41 41 41 42 42 43 43 44
Wind_Direction
277 274 270 266 263 260 256 253 252 250 248 248 246 245 242 240 237 236 236 235 234 235 233 231 230 229 229 229 229 230 230 230 230 230 232 233 235 237
279 276 272 267 263 260 258 254 252 250 248 247 245 245 243 239 236 236 236 234 232 232 232 232 230 228 228 228 228 229 229 230 230 231 232 234 235 237
280 277 273 268 263 259 257 254 251 249 248 245 245 243 243 240 237 236 235 233 231 229 230 231 230 229 228 227 228 228 228 229 230 231 232 233 235 237
282 278 274 270 265 260 256 253 251 248 247 245 244 243 241 239 237 236 235 233 231 230 229 230 230 229 228 227 227 228 229 229 230 231 231 232 233 235
283 278 274 270 266 261 256 253 251 248 246 244 243 243 241 239 237 236 234 233 232 232 230 230 230 230 229 228 227 228 228 229 229 229 231 231 232 234
286 280 274 270 266 261 257 254 252 249 246 244 242 241 240 239 237 236 235 235 233 233 231 231 230 230 229 228 227 228 228 228 228 229 230 231 231 232
290 283 277 272 268 262 257 254 252 250 247 244 242 241 240 238 236 236 234 234 233 232 231 231 230 229 229 228 227 227 227 228 228 229 230 230 230 231
292 287 281 275 269 264 258 254 252 250 248 246 243 241 239 237 236 235 235 233 233 232 231 230 230 229 227 226 228 227 227 228 228 229 229 228 229 230
295 289 284 279 273 267 260 255 252 250 248 246 244 242 240 238 236 235 234 233 233 233 232 230 230 229 227 226 227 227 227 228 228 228 227 227 229 230
298 292 286 280 276 270 264 258 254 250 248 245 243 241 240 238 237 235 235 233 232 232 232 231 231 231 230 229 228 227 227 227 227 228 227 227 229 230
300 295 289 283 278 273 267 262 257 252 249 246 243 241 240 238 236 235 235 234 232 231 231 231 231 231 231 230 229 227 227 227 227 228 228 228 229 230
303 298 293 286 280 274 269 264 258 254 250 247 243 241 240 239 237 235 234 234 232 231 230 230 231 231 231 230 229 228 226 226 227 227 227 228 229 230
307 302 297 290 283 276 271 266 260 254 251 247 244 241 239 238 237 235 234 233 232 231 230 230 230 230 231 230 228 228 226 225 226 226 227 228 230 231
310 306 301 295 288 281 274 268 261 255 251 248 245 242 240 238 236 235 234 234 232 230 229 229 229 229 229 229 228 229 227 226 226 226 227 228 228 229
313 309 305 299 293 287 280 272 264 258 253 249 244 241 240 238 235 234 233 233 232 231 230 229 227 226 227 227 228 229 229 227 227 227 227 227 227 228
317 313 309 304 299 293 284 275 267 260 255 249 243 240 238 236 234 233 232 231 231 230 230 229 227 226 226 227 228 229 229 228 229 228 228 228 228 228
321 319 316 309 304 299 292 283 272 262 255 249 243 239 236 234 232 231 230 229 229 228 228 228 227 227 226 226 226 227 227 227 228 227 227 227 228 228
325 324 322 317 311 305 297 289 279 269 258 248 241 236 234 234 232 229 227 227 227 227 226 227 227 226 226 227 226 227 227 228 229 228 227 227 228 228
327 325 324 322 316 310 303 293 284 274 261 249 242 237 235 233 231 229 226 225 226 225 225 225 226 225 226 226 226 226 227 227 228 228 228 228 228 228
331 329 326 325 322 316 310 302 290 277 264 251 243 238 235 232 230 229 226 224 224 223 222 223 224 225 225 225 225 225 224 224 225 227 230 230 229 229
331 330 328 327 324 319 314 307 297 284 269 254 244 238 235 232 229 228 226 223 223 222 222 222 223 224 224 223 223 225 225 224 225 226 228 229 229 229
329 329 328 327 325 323 317 310 304 292 276 262 247 240 236 232 230 228 224 221 221 220 219 219 221 222 222 222 222 224 225 227 227 228 228 228 230 230
328 329 328 326 324 323 320 312 305 296 282 266 250 240 234 232 230 227 222 219 218 219 219 219 220 221 221 220 221 221 222 224 227 228 230 231 232 233
Height
5756 5756 5756 5756 5757 5759 5761 5764 5767 5770 5774 5777 5780 5783 5787 5791 5797 5802 5807 5812 5817 5822 5826 5832 5837 5843 5848 5854 5859 5865 5870 5875 5880 5885 5890 5894 5898 5901
5745 5744 5744 5744 5745 5747 5749 5751 5754 5758 5762 5766 5769 5773 5777 5781 5786 5791 5796 5802 5807 5812 5817 5822 5828 5834 5839 5845 5851 5856 5862 5867 5872 5877 5882 5887 5891 5895
5733 5733 5732 5732 5733 5734 5736 5739 5742 5745 5750 5754 5757 5762 5766 5771 5776 5781 5786 5791 5796 5802 5808 5813 5819 5824 5830 5836 5842 5848 5854 5859 5864 5869 5874 5879 5884 5888
5722 5721 5720 5720 5721 5722 5724 5726 5730 5733 5737 5742 5746 5750 5755 5760 5765 5770 5776 5781 5786 5792 5798 5804 5809 5815 5821 5827 5833 5839 5845 5851 5856 5861 5867 5872 5876 5880
5711 5710 5709 5709 5709 5710 5712 5714 5717 5721 5725 5730 5735 5739 5744 5749 5754 5759 5765 5771 5776 5782 5788 5794 5800 5806 5812 5818 5824 5830 5836 5842 5848 5853 5858 5864 5868 5873
5700 5699 5698 5698 5698 5699 5700 5703 5706 5709 5713 5718 5723 5728 5733 5737 5743 5748 5754 5760 5766 5772 5778 5784 5790 5796 5802 5809 5815 5821 5828 5834 5839 5845 5850 5855 5860 5865
5690 5688 5687 5687 5687 5688 5689 5692 5695 5698 5702 5706 5711 5716 5721 5726 5731 5737 5743 5749 5755 5761 5768 5774 5781 5787 5792 5799 5806 5813 5819 5825 5831 5837 5842 5847 5853 5858
5681 5679 5677 5677 5676 5677 5678 5681 5684 5687 5691 5695 5699 5704 5710 5715 5720 5726 5732 5738 5745 5752 5757 5764 5770 5776 5783 5790 5797 5803 5810 5816 5822 5828 5834 5839 5845 5850
5672 5670 5668 5667 5666 5667 5668 5670 5672 5675 5679 5683 5688 5692 5697 5703 5709 5715 5720 5727 5734 5740 5747 5754 5760 5766 5773 5780 5787 5793 5800 5807 5813 5819 5825 5831 5836 5842
5664 5661 5659 5658 5657 5657 5658 5659 5661 5664 5667 5671 5676 5681 5685 5690 5696 5703 5708 5716 5723 5729 5736 5743 5750 5756 5763 5769 5776 5783 5790 5797 5803 5809 5815 5822 5827 5833
5655 5652 5650 5649 5648 5648 5648 5650 5651 5653 5655 5659 5664 5668 5673 5679 5684 5691 5698 5705 5712 5719 5725 5732 5739 5746 5752 5758 5765 5772 5779 5786 5793 5800 5806 5812 5818 5824
5647 5644 5642 5640 5639 5638 5638 5639 5641 5643 5645 5648 5652 5657 5661 5667 5673 5680 5686 5693 5700 5708 5714 5721 5728 5735 5741 5748 5754 5761 5768 5775 5782 5789 5796 5803 5809 5815
5640 5637 5634 5632 5630 5629 5629 5629 5630 5632 5634 5637 5641 5645 5650 5655 5661 5668 5675 5682 5689 5696 5703 5710 5717 5724 5731 5738 5744 5751 5758 5765 5772 5779 5786 5793 5799 5805
5633 5629 5626 5623 5621 5620 5619 5619 5619 5621 5623 5626 5630 5634 5639 5645 5650 5656 5663 5670 5677 5684 5691 5698 5706 5713 5720 5727 5734 5741 5747 5754 5761 5769 5776 5782 5788 5795
5626 5622 5619 5615 5613 5611 5609 5608 5609 5610 5613 5616 5620 5624 5628 5633 5639 5645 5651 5658 5665 5672 5680 5687 5694 5701 5709 5716 5723 5730 5737 5744 5751 5758 5765 5772 5778 5785
5620 5616 5612 5608 5605 5602 5600 5600 5600 5601 5603 5606 5609 5613 5617 5622 5628 5634 5640 5647 5654 5662 5669 5676 5683 5691 5698 5705 5712 5720 5727 5733 5740 5747 5754 5761 5768 5775
5615 5610 5606 5602 5599 5596 5594 5593 5592 5593 5594 5596 5599 5603 5608 5612 5618 5623 5629 5636 5643 5651 5658 5665 5672 5679 5687 5694 5702 5709 5717 5724 5730 5737 5743 5751 5757 5765
5610 5605 5601 5598 5594 5591 5589 5587 5586 5586 5587 5589 5591 5595 5599 5604 5608 5614 5620 5626 5633 5640 5647 5654 5661 5668 5676 5684 5692 5699 5707 5714 5721 5727 5734 5741 5748 5754
5606 5601 5597 5593 5590 5587 5584 5582 5581 5581 5581 5582 5585 5588 5592 5596 5600 5605 5611 5617 5624 5630 5637 5644 5651 5658 5666 5675 5682 5690 5697 5704 5711 5717 5724 5731 5738 5744
5602 5597 5593 5590 5586 5583 5580 5578 5577 5576 5576 5577 5579 5582 5585 5589 5593 5597 5603 5609 5615 5621 5628 5635 5642 5649 5657 5665 5672 5679 5686 5694 5701 5707 5714 5720 5726 5733
5599 5594 5590 5586 5583 5580 5577 5575 5573 5572 5572 5573 5575 5577 5580 5583 5587 5591 5596 5601 5607 5613 5620 5627 5634 5640 5647 5654 5662 5669 5676 5683 5691 5697 5704 5710 5716 5723
5596 5591 5587 5583 5580 5577 5575 5573 5571 5570 5569 5570 5571 5573 5575 5578 5581 5585 5589 5594 5600 5606 5613 5619 5625 5632 5639 5646 5653 5660 5667 5673 5680 5687 5694 5701 5706 5713
5592 5588 5584 5581 5577 5575 5572 5570 5569 5568 5567 5567 5568 5569 5571 5573 5576 5579 5584 5589 5594 5600 5605 5612 5618 5624 5630 5637 5644 5650 5657 5664 5670 5677 5684 5690 5696 5702